Regional Weather Roundup
Issued by NWS

Home | Current Version | Previous Version | Graphics & Text | Print | Product List | Glossary On
Versions: 1 2 3 4 5 6 7 8 9 10 11 12 13 14 15 16 17 18 19 20 21 22 23 24 25 26 27 28 29 30 31 32 33 34 35 36 37 38 39 40 41 42 43 44 45 46 47 48 49 50
000
ASUS45 KTFX 190710
RWRMT
MONTANA REGIONAL WEATHER ROUNDUP
NATIONAL WEATHER SERVICE GREAT FALLS MT
1200 AM MST THU JAN 19 2017

NOTE: "FAIR" INDICATES FEW OR NO CLOUDS BELOW 12000 FEET WITH NO
SIGNIFICANT WEATHER AND/OR OBSTRUCTIONS TO VISIBILITY.

MTZ001>007-043-190800-
WEST OF THE DIVIDE

CITY           SKY/WX    TMP DP  RH WIND       PRES   REMARKS
KALISPELL      MIX PCPN  31  30  96 S5        29.50S FOG
MISSOULA       CLOUDY    28  26  92 N5        29.55F FOG
BUTTE          CLOUDY    25  17  72 NE5       29.60F
MULLAN PASS    LGT SNOW  33  29  85 S8G22     29.46F FOG     WCI  26
ANACONDA         N/A     37  25  60 SE14      29.56F WCI  29
DEER LODGE       N/A     37  25  60 SW3       29.58F
EUREKA           N/A     34  32  93 CALM      29.48F VSB 1/4
HAMILTON         N/A     39  27  60 SE14      29.54S WCI  31
PLAINS           N/A     31  25  78 CALM      29.56
RONAN            N/A     30  28  92 W3        29.58S
$$

MTZ008-052>055-190800-
SOUTHWEST MONTANA

CITY           SKY/WX    TMP DP  RH WIND       PRES   REMARKS
BOZEMAN        CLOUDY    22  16  78 CALM      29.62S
DILLON         CLOUDY    38  19  46 SW9       29.62F WCI  31
W YELLOWSTONE  CLOUDY    14  10  85 CALM      29.78F
ENNIS          CLOUDY    34  18  51 S35G40    29.70F WCI  19
$$

MTZ009-010-012-014-046-048-049-054-190800-
EAST SLOPES AND CENTRAL MONTANA

CITY           SKY/WX    TMP DP  RH WIND       PRES   REMARKS
CUT BANK       CLOUDY    41  32  70 W9        29.40F
GREAT FALLS    CLOUDY    42  25  50 S14       29.48F
MALMSTROM AFB  CLOUDY    43  27  54 SW20      29.48F
HELENA         CLOUDY    29  21  72 CALM      29.57S
AUGUSTA          N/A     36  29  76 S17       29.45S WCI  25
BOWMANS CRNR     N/A     35  23  62 S20       29.46F WCI  23
CHOTEAU          N/A     39  28  65 S13G22    29.46S WCI  32
CONRAD           N/A     39  31  73 SE22      29.48F WCI  28
POWER            N/A     38  28  67 S17       29.46F WCI  29
RAYNESFORD     MOCLDY    47  24  39 S15G24    29.48R
ULM            MOCLDY    40  27  61 MISG      29.49F
$$

MTZ011-013-016-021-045-047-050-051-190800-
NORTH CENTRAL MONTANA

CITY           SKY/WX    TMP DP  RH WIND       PRES   REMARKS
HAVRE          PTCLDY    33  29  85 W6        29.44F WCI  28
LEWISTOWN      CLOUDY    43  28  55 SW6       29.49F
CHINOOK          N/A     36  28  75 CALM      29.46S
DENTON           N/A     36  28  72 SE17      29.44F WCI  26
FORT BENTON      N/A     41  28  60 MISG      29.48F
GEYSER         MOCLDY    45  28  50 CALM      29.46F
GRASS RANGE      N/A     40  29  64 W7        29.46F
JUDITH GAP     MOCLDY    40  25  54 S14       29.51F
ROY              N/A     40  29  64 MISG      29.48F
STANFORD       MOCLDY    46  29  50 W7G20     29.47F
WINIFRED         N/A     45  28  51 SW8       29.48F
$$

MTZ017>020-022>027-061-062-190800-
NORTHEAST MONTANA

CITY           SKY/WX    TMP DP  RH WIND       PRES   REMARKS
GLASGOW        CLOUDY    27  22  81 SE13      29.50F WCI  16
JORDAN           N/A     26  21  81 CALM      29.51F
SIDNEY         CLOUDY    24  20  84 SW14      29.54F WCI  12
WOLF POINT     CLOUDY    17  14  88 NW3       29.53F
PLENTYWOOD       N/A     30  25  80 E5        29.50F
POPLAR           N/A     27  23  86 CALM      29.53S
SCOBEY           N/A     25  15  65 SE1       29.50
$$

MTZ028>42-056>058-190800-
SOUTHCENTRAL AND SOUTHEAST MONTANA

CITY           SKY/WX    TMP DP  RH WIND       PRES   REMARKS
BAKER          CLOUDY    18  11  74 CALM      29.57S
BILLINGS       CLOUDY    36  20  52 SW18      29.55F WCI  26
LIVINGSTON     CLOUDY    42  16  34 SW14G21   29.59F
MILES CITY     CLOUDY    26  18  71 SE12      29.55F WCI  16
BIG TIMBER     CLEAR     43  19  39 W22G28    29.57F
EKALAKA          N/A     39  16  39 SE2       29.58
FORSYTH          N/A     32  21  64 CALM      29.54F
HARLOWTON      MOCLDY    35  23  62 W9        29.52F WCI  28
LAUREL           N/A     33  19  56 SW8       29.58F WCI  26
$$

REGIONAL REPORTS...DAKOTAS

CITY           SKY/WX    TMP DP  RH WIND       PRES   REMARKS
WILLISTON      CLOUDY    25  21  85 S5        29.54F
MINOT          CLOUDY    33  25  72 SW10      29.50R WCI  25
DICKINSON      CLOUDY    33  20  58 W8        29.51F WCI  26
BEACH            N/A     32  21  64 CALM      29.58S
CROSBY           N/A     28  25  86 S17       29.52R WCI  16
TIOGA            N/A     28  27  93 SW8       29.54R WCI  20
WATFORD CITY     N/A     23  19  86 SW9       29.55S WCI  13
BISMARCK       CLOUDY    22  15  75 CALM      29.58F
GRAND FORKS    CLOUDY    26  19  74 S13       29.60F WCI  15
FARGO          CLOUDY    29  24  82 S10       29.64F WCI  20
BUFFALO SD       N/A     34  21  59 W6        29.48F WCI  29
RAPID CITY     CLOUDY    33  23  66 NW13      29.56F WCI  24
$$

REGIONAL REPORTS...WYOMING/IDAHO/WASHINGTON

CITY           SKY/WX    TMP DP  RH WIND       PRES   REMARKS
GILLETTE       CLOUDY    34  20  56 SW16      29.59F WCI  24
SHERIDAN       CLOUDY    21  16  81 VRB6      29.58F WCI  13
BUFFALO WY     CLOUDY    38  19  46 W10       29.60F WCI  31
CODY           CLOUDY    19  13  77 NE5       29.64F
YELLOWSTONE LA   N/A     11   9  92 CALM      29.79F
IDAHO FALLS    CLOUDY    21  16  81 E6        29.83F WCI  13
SALMON         CLOUDY    16  12  86 CALM      29.70F
BOISE          CLOUDY    37  33  85 SE18      29.66F WCI  27
SPOKANE        LGT RAIN  37  34  89 SE14      29.48S WCI  28
$$

REGIONAL REPORTS...ALBERTA

CITY           SKY/WX    TMP DP  RH WIND       PRES   REMARKS
EDMONTON       CLEAR     41  23  48 W7        29.17R
CALGARY        MOCLDY    41  25  52 SE6       29.28R
LETHBRIDGE     CLOUDY    36  32  87 S10       29.35F WCI  28
MEDICINE HAT   CLOUDY    39  34  81 S10       29.38F
WATERTON GATE    N/A     43  32  65 SW24G32     N/A
CARDSTON         N/A     43  32  65 W5          N/A
MILK RIVER       N/A     41  34  75 SW3         N/A
$$

REGIONAL REPORTS...SASKATCHEWAN

CITY           SKY/WX    TMP DP  RH WIND       PRES   REMARKS
SWIFT CURRENT  PTCLDY    41  32  70 SW20G25   29.35R
REGINA         CLEAR     34  28  80 S13       29.41F WCI  25
SASKATOON      MOCLDY    32  30  93 S8        29.31F WCI  25
VAL MARIE        N/A     28  25  86 S12         N/A  WCI  18
ASSINIBOIA       N/A     25  23  93 S6          N/A  WCI  18
$$



USA.gov is the U.S. government's official web portal to all federal, state and local government web resources and services.